Regional Weather Roundup
Issued by NWS

Home | Current Version | Previous Version | Text Only | Print | Product List | Glossary On
Versions: 1 2 3 4 5 6 7 8 9 10 11 12 13 14 15 16 17 18 19 20 21 22 23 24 25 26 27 28 29 30 31 32 33 34 35 36 37 38 39 40 41 42 43 44 45 46 47 48 49 50
000
ASUS43 KFSD 281602
RWRSD

WEATHER ROUNDUP FOR SOUTH DAKOTA
NATIONAL WEATHER SERVICE SIOUX FALLS SD
1100 AM CDT MON JUL 28 2014

NOTE: "FAIR" INDICATES FEW OR NO CLOUDS BELOW 12,000 FEET WITH NO
SIGNIFICANT WEATHER AND/OR OBSTRUCTIONS TO VISIBILITY.


SDZ001>005-009-010-012>017-281700-
NORTHWEST AND NORTH CENTRAL SOUTH DAKOTA

CITY           SKY/WX    TMP DP  RH WIND       PRES   REMARKS
BUFFALO          N/A     71  55  56 MISG      30.27F
FAITH            N/A     69  53  56 E6        30.33F
MOBRIDGE       MOSUNNY   67  54  63 VRB6      30.32F
$$

SDZ012>016-024>037-041>051-057-063-072>074-281700-
SOUTHWEST AND SOUTH CENTRAL SOUTH DAKOTA

CITY           SKY/WX    TMP DP  RH WIND       PRES   REMARKS
RAPID CTY ARPT SUNNY     70  56  61 SE10      30.34F
PIERRE         MOSUNNY   69  54  58 CALM      30.32F
CUSTER         SUNNY     68  47  46 VRB3      30.43F
ELLSWORTH AFB  SUNNY     71  56  59 S10       30.33F
PHILIP         SUNNY     71  53  52 SE6       30.32F
PINE RIDGE     MOSUNNY   73  55  53 SE9       30.34F
WINNER         FAIR      71  51  49 NE5       30.34S
$$

SDZ004>011-016>023-039-040-281700-
NORTHEAST SOUTH DAKOTA

CITY           SKY/WX    TMP DP  RH WIND       PRES   REMARKS
ABERDEEN       SUNNY     68  54  60 N10       30.31F
WATERTOWN      CLOUDY    66  53  63 N14       30.29S
SISSETON         N/A     69  57  65 N9        30.28S
$$

SDZ017-020-022-023-036>040-048>070-281700-
SOUTHEAST SOUTH DAKOTA

CITY           SKY/WX    TMP DP  RH WIND       PRES   REMARKS
SIOUX FALLS    PTSUNNY   69  59  70 N10       30.27F
HURON          MOSUNNY   68  56  65 N12       30.30S
CHAMBERLAIN    SUNNY     68  54  60 N8        30.33F
MITCHELL       SUNNY     69  57  65 N12       30.31S
YANKTON        MOSUNNY   68  55  64 N14       30.29S
$$

ABBREVIATIONS USED IN REMARKS
   TC - TEMPERATURE IN CELSIUS
  WCI - WIND CHILL INDEX
   HX - HEAT INDEX
  VSB - VISIBILITY



USA.gov is the U.S. government's official web portal to all federal, state and local government web resources and services.